RH
90 85 88 87 96 93 94 96 96 93 94 85 94 95 95 89 88 92 92 95 97 97 98 96 91 90 95 98 98 96 96 94 91 90 89 89 89 95 91 91 92 92 94
87 85 90 93 96 87 92 85 82 90 84 78 94 96 96 93 82 80 85 87 97 98 98 97 95 95 94 96 98 100 96 86 72 72 92 93 90 91 88 82 84 89 93
88 89 85 84 96 92 88 78 77 81 78 89 95 97 97 96 96 90 92 98 98 98 98 96 96 96 96 96 96 96 92 88 89 82 84 87 82 92 90 72 70 86 92
90 94 88 88 96 94 74 70 71 77 79 84 94 96 97 98 99 100 100 97 97 97 98 95 95 96 96 93 96 98 85 86 89 89 88 89 89 92 97 95 93 92 94
99 93 85 96 95 94 74 74 76 78 81 87 96 98 99 99 97 98 100 100 95 95 88 95 94 94 94 99 100 88 88 88 88 86 84 85 87 92 97 97 95 93 91
98 90 93 93 96 94 80 91 94 96 91 92 92 96 99 99 98 96 92 96 91 90 91 92 96 99 98 99 95 88 89 90 88 88 88 90 92 89 92 95 95 93 97
100 100 95 89 95 88 93 95 97 97 92 95 94 93 93 92 96 87 83 90 86 92 98 99 98 98 100 91 89 92 91 89 91 94 90 89 86 96 95 94 95 96 94
100 100 100 95 92 94 96 98 98 98 99 98 100 99 99 99 99 98 95 97 98 98 98 99 98 99 88 86 88 89 90 89 89 90 92 91 85 93 97 95 94 95 96
100 100 100 100 97 95 95 96 96 97 97 99 99 95 96 99 98 96 98 99 100 99 98 98 100 100 90 85 87 89 88 89 91 93 92 90 90 95 96 96 94 92 91
100 100 100 100 99 100 100 99 98 99 100 100 94 90 90 93 98 99 99 100 100 100 99 100 100 99 89 87 88 90 89 94 94 96 96 95 95 97 99 98 95 95 94
100 100 100 100 100 100 99 100 94 89 90 94 94 94 96 94 91 88 92 96 97 100 100 100 100 91 89 93 94 92 88 92 97 99 100 93 96 98 98 98 98 98 95
100 100 100 100 99 98 99 99 96 92 90 98 98 93 85 79 76 76 76 80 85 89 94 94 82 82 90 94 94 91 91 92 96 99 100 96 99 100 98 97 99 99 99
99 100 100 100 99 97 96 96 94 90 89 86 88 83 76 73 74 71 72 73 73 73 71 69 71 79 89 94 92 91 91 89 94 98 100 96 99 99 100 99 99 99 98
97 98 97 96 95 94 92 90 89 90 90 81 75 72 71 70 70 70 67 65 64 64 58 61 67 74 82 89 91 91 89 88 91 95 100 99 99 100 100 100 100 100 100
93 98 96 92 88 87 86 85 80 78 79 75 73 68 68 71 64 61 47 47 50 49 57 63 68 68 69 72 76 80 80 83 86 88 93 98 99 100 100 100 100 100 100
87 88 95 87 81 78 75 72 65 54 51 60 63 63 57 51 46 37 31 32 35 39 46 54 57 56 54 53 50 53 54 59 67 73 80 90 94 100 99 98 96 93 93
78 76 83 74 67 68 64 58 47 42 42 42 38 33 34 35 35 32 29 28 28 32 35 39 39 36 31 26 23 22 23 28 31 35 46 60 71 92 97 94 89 86 83
69 68 66 53 51 53 49 42 38 35 34 31 31 29 30 29 28 24 23 21 23 26 31 34 32 28 23 19 17 16 14 14 14 13 16 24 37 60 81 81 78 80 82
62 62 54 47 43 43 40 39 36 35 32 29 28 26 25 23 20 19 17 17 22 25 28 29 26 22 19 20 21 20 19 17 16 14 13 12 12 13 20 47 65 70 74
58 57 52 47 45 45 43 44 40 34 30 27 24 22 21 18 15 14 14 16 21 24 26 25 22 20 20 24 25 26 25 23 20 19 17 16 14 13 12 12 15 41 65
55 54 51 49 47 45 44 41 39 36 32 28 24 22 20 17 12 12 14 16 21 21 25 23 22 22 26 25 27 31 31 27 26 24 22 20 18 18 16 15 16 16 15
55 53 52 51 49 44 41 40 40 37 36 28 26 25 23 19 16 12 11 12 20 25 25 23 22 31 31 28 30 32 48 33 31 29 26 25 23 20 20 22 20 19 19
58 55 54 52 50 45 41 40 40 39 38 36 30 25 24 22 20 17 15 14 19 25 28 26 24 27 34 34 31 38 59 51 38 34 32 31 29 22 22 22 24 26 24
60 57 53 52 50 45 41 38 38 43 43 39 31 26 24 22 20 19 18 17 16 20 29 28 26 26 28 32 27 20 22 27 41 47 41 37 34 25 22 20 21 23 24
59 57 53 50 48 44 41 36 40 40 36 35 34 31 28 24 20 19 18 17 17 17 17 22 25 24 23 24 18 26 26 26 23 29 41 43 35 30 24 21 21 24 27
59 56 54 52 50 46 40 39 39 36 36 38 39 36 34 28 24 22 21 20 19 18 18 19 19 18 18 18 20 20 21 27 35 34 47 50 42 33 27 25 24 28 33
Wind_Speed
12 11 14 14 11 10 8 11 13 12 13 15 17 17 18 18 18 18 19 21 20 20 22 24 24 23 23 23 24 25 25 24 23 23 25 25 23 22 25 26 27 23 22
13 14 17 14 13 12 11 10 13 13 14 16 17 18 20 19 20 20 20 21 22 22 23 24 25 24 24 24 25 25 25 26 26 25 25 26 25 22 20 21 22 22 22
14 14 18 16 14 13 13 13 14 13 14 16 19 20 19 20 20 19 22 23 23 23 23 23 23 23 24 25 26 25 24 26 26 26 24 24 23 23 23 26 24 22 22
12 16 16 16 16 15 14 14 16 15 14 17 20 22 22 22 22 22 22 23 23 23 22 20 22 23 25 25 25 24 26 24 24 24 25 24 21 20 19 19 20 21 21
13 14 16 17 18 17 17 17 18 19 17 16 20 22 25 25 25 25 25 24 24 22 22 22 24 25 25 25 25 26 26 25 24 23 23 22 20 17 18 18 18 19 22
15 15 15 19 19 19 17 18 21 22 19 18 16 19 22 24 25 27 26 23 23 22 22 24 26 26 26 25 25 26 25 24 24 22 20 19 20 18 18 18 18 19 21
15 15 16 19 20 22 21 21 22 24 25 22 20 19 20 20 20 19 20 17 19 22 23 24 26 26 26 26 26 26 24 24 24 23 21 18 16 17 17 18 18 19 18
16 18 18 20 22 23 23 23 22 21 23 22 21 22 23 23 22 22 21 21 19 20 24 25 25 26 27 26 26 25 24 24 24 23 21 18 17 17 17 17 17 16 16
17 21 23 23 21 22 24 23 23 22 21 21 21 20 21 21 21 20 22 21 21 22 24 24 25 25 25 25 26 25 24 24 25 22 19 17 16 17 18 18 16 14 14
19 23 26 28 30 29 27 25 26 25 23 24 25 25 24 23 22 19 20 20 21 22 24 25 25 24 25 25 26 25 26 27 28 26 23 19 19 19 20 20 18 15 15
20 25 27 28 29 28 27 24 22 20 20 21 25 27 28 25 24 23 21 20 21 22 22 23 24 24 24 25 27 26 27 30 30 30 25 21 21 21 22 22 24 25 21
26 24 28 28 29 28 26 24 23 22 19 17 21 23 24 27 27 28 25 23 21 21 21 22 22 23 24 26 26 25 29 28 31 31 26 21 19 21 25 27 27 26 29
27 25 24 27 25 25 23 21 21 20 18 18 22 22 24 25 26 24 26 25 25 24 23 23 24 24 24 25 25 26 27 27 27 27 27 27 23 25 26 28 27 27 25
30 28 24 24 24 22 22 21 20 21 21 22 22 23 24 24 23 21 20 20 21 22 24 24 23 24 24 24 23 24 25 25 26 27 27 27 29 26 28 25 25 26 26
29 31 29 27 25 24 24 23 22 22 22 24 23 22 20 21 20 20 21 22 23 23 25 26 24 24 25 25 25 24 25 25 24 25 27 27 26 28 27 28 27 28 27
29 32 31 30 28 27 26 25 23 22 22 22 23 21 19 19 21 22 23 24 25 24 26 26 27 27 28 27 27 26 26 25 24 23 24 27 25 25 24 24 24 25 24
31 35 32 31 28 28 26 24 23 22 22 22 21 20 20 19 20 22 24 26 25 25 27 29 29 29 29 28 28 25 23 23 22 22 22 22 25 26 24 22 23 24 22
32 36 33 29 28 27 26 25 24 23 22 21 21 21 21 21 21 23 25 26 26 26 28 30 31 31 30 29 29 27 26 25 24 24 23 22 22 23 25 22 23 22 22
31 34 35 31 30 27 25 24 22 22 22 21 21 22 22 22 23 24 25 27 27 28 28 30 31 32 34 33 32 29 27 26 26 24 25 24 24 22 21 21 22 21 21
29 31 35 34 31 28 26 24 21 21 21 21 21 22 23 23 24 25 26 28 29 30 30 30 33 34 36 36 34 30 26 24 23 23 23 23 22 21 19 18 17 19 19
32 32 33 35 33 32 30 28 25 25 22 22 22 23 24 24 25 25 27 29 29 30 32 33 36 37 36 36 31 28 22 20 20 19 18 19 19 18 17 16 15 14 15
35 34 33 33 34 33 33 30 27 28 22 23 21 21 22 23 24 25 27 28 29 32 33 35 38 37 33 24 13 11 3 5 9 12 13 16 17 14 15 14 12 11 11
28 33 34 34 33 32 31 29 27 24 24 21 22 22 23 23 25 25 26 27 29 30 33 34 33 36 26 14 21 7 3 3 7 6 7 8 10 11 11 11 10 9 9
21 25 32 32 32 31 30 30 33 23 22 24 27 25 23 22 23 23 24 24 25 26 29 28 29 27 27 21 12 5 6 13 3 3 6 5 3 6 8 9 8 7 8
22 27 29 31 30 29 29 29 29 24 22 25 24 24 23 22 21 21 22 22 23 23 23 24 24 20 20 20 13 12 12 11 8 4 3 6 5 2 5 6 7 6 7
22 26 28 29 27 28 28 26 27 27 24 27 24 23 22 21 21 20 20 21 21 20 21 20 20 19 16 14 14 12 10 5 5 4 4 3 2 2 4 4 5 5 6
Wind_Direction
173 174 183 164 166 165 159 154 145 155 158 140 132 127 124 128 129 129 127 123 118 115 114 114 110 108 104 104 104 103 100 97 98 104 102 101 98 94 95 92 95 95 89
162 178 181 163 172 170 156 161 148 155 157 154 133 128 124 122 125 127 127 122 117 116 114 114 112 109 107 104 103 102 98 98 97 103 103 100 96 92 97 98 95 90 88
160 177 171 166 175 169 168 160 149 152 152 144 135 127 122 121 119 120 114 111 114 114 112 111 113 113 114 110 106 105 105 103 98 96 101 96 92 94 93 99 98 89 93
162 173 178 169 175 168 169 162 154 157 151 139 136 130 122 117 113 110 108 110 110 108 105 111 118 120 118 112 108 107 108 107 103 100 99 97 94 93 90 100 99 98 92
162 174 179 170 168 161 160 161 151 156 153 141 132 125 116 114 115 110 106 105 108 111 111 111 117 119 117 109 106 111 111 110 109 104 103 104 101 94 90 97 109 107 100
153 171 167 171 171 170 169 157 142 135 135 145 148 133 125 118 112 112 110 110 117 123 114 115 113 113 112 107 109 113 112 110 108 106 107 108 107 99 92 89 108 104 97
143 158 164 167 166 160 156 147 139 135 130 126 125 133 132 130 131 130 122 123 121 118 117 117 119 115 110 113 114 112 111 110 106 101 96 99 104 104 102 93 95 92 94
148 138 148 156 155 149 145 138 135 130 127 125 116 115 110 111 113 120 129 125 118 123 123 122 121 118 119 117 115 113 111 108 103 99 98 96 94 95 96 103 97 95 95
150 147 139 146 148 147 140 136 131 131 132 131 126 130 130 124 124 126 127 122 118 117 126 120 114 118 123 122 119 115 111 107 98 91 94 95 96 96 93 91 91 94 97
158 155 148 141 140 137 139 141 138 128 124 129 137 143 141 131 126 122 123 119 117 117 117 118 115 122 127 126 124 120 115 104 95 89 83 90 93 95 94 89 86 90 88
168 160 159 152 147 145 142 141 155 157 155 149 142 142 141 138 135 127 126 126 121 118 120 120 123 135 132 127 125 121 117 106 99 86 82 81 82 87 85 83 79 81 83
178 168 163 161 160 158 155 160 159 164 175 170 155 149 146 143 140 138 129 120 119 124 129 133 137 134 133 128 126 122 115 111 98 87 79 79 76 83 87 85 82 78 78
181 176 173 172 172 174 172 171 172 174 178 168 163 158 155 152 150 151 150 149 145 144 142 135 133 132 132 130 126 121 117 114 106 93 83 79 79 85 85 81 80 78 76
185 184 182 182 182 183 182 181 183 182 181 173 168 165 161 158 156 156 156 152 154 149 143 141 138 134 133 131 126 120 117 116 111 102 87 85 76 79 82 83 76 74 71
184 189 188 186 187 184 184 182 182 179 176 174 172 171 172 167 167 161 156 152 151 148 147 144 141 138 132 127 121 119 114 112 114 111 97 83 76 74 79 77 75 71 71
183 189 189 187 186 183 181 179 178 179 175 174 173 175 176 172 166 160 154 150 149 150 147 143 140 135 126 123 117 114 113 111 109 107 104 89 75 76 81 77 74 73 70
182 188 187 185 185 183 182 181 181 179 178 177 177 174 172 173 170 163 158 152 150 149 146 142 137 131 126 120 114 114 112 110 107 104 102 99 92 78 78 78 73 71 71
179 183 184 182 181 180 180 178 177 176 177 176 175 173 171 171 171 167 161 155 152 152 150 144 138 131 123 119 114 110 108 106 104 102 100 98 96 96 83 77 74 72 70
182 179 180 181 178 175 174 172 173 173 174 174 173 171 169 169 169 169 161 155 153 152 150 145 138 134 125 117 111 108 104 102 100 100 96 93 90 88 85 82 79 71 69
181 179 183 180 178 176 172 169 168 167 168 170 170 170 168 167 166 166 159 155 156 152 148 146 140 134 128 121 113 104 102 101 99 95 94 92 88 86 86 82 78 77 66
176 179 181 180 178 176 169 164 163 162 163 163 166 168 168 165 163 163 157 156 158 156 152 149 141 136 128 126 111 100 96 99 99 97 97 91 83 78 78 79 78 76 73
172 176 178 182 179 179 177 171 169 163 163 163 164 166 167 165 164 161 158 159 160 156 154 153 150 140 137 138 139 114 117 91 96 106 103 90 82 78 75 71 72 71 65
169 170 173 178 178 180 179 171 164 161 156 156 162 163 165 167 166 164 158 155 159 161 160 160 159 154 153 156 161 141 131 165 144 150 130 109 84 74 75 65 63 58 45
167 164 169 172 177 181 179 176 171 159 158 168 167 165 164 167 165 165 163 160 157 159 162 167 169 168 166 152 151 142 146 137 156 154 200 170 136 72 67 51 51 39 38
158 165 172 174 179 180 182 182 171 163 170 169 166 164 165 164 165 164 162 161 161 160 162 168 174 184 184 167 168 139 119 115 127 140 152 175 185 113 53 42 42 45 45
155 167 173 175 175 178 182 182 181 180 171 167 167 166 166 163 163 163 162 162 159 158 156 156 158 161 164 161 155 154 154 149 144 121 112 137 167 180 348 81 62 60 58